GEFSMA_prec_meanprecacc_096.txt.gz
Total_Precipitation_Accumulation
0.64 0.70 0.68 0.78 0.78 0.87 1.06 1.28 1.33 1.50 1.58 1.58 1.35 1.17 1.09 1.00 0.90 1.09 1.20 1.00 0.84 0.91 1.15 1.31 1.23 1.10 1.00 1.00 1.01 0.96 0.92 0.94 0.87 0.64 0.52 0.48 0.50 0.57 0.55 0.49 0.43 0.38 0.36
1.12 1.22 1.20 1.24 1.12 1.14 1.31 1.55 1.62 1.91 1.83 1.73 1.39 1.29 1.18 1.11 0.97 1.04 1.22 1.22 0.93 0.82 0.92 1.14 1.28 1.21 1.11 1.07 1.05 1.00 0.93 0.93 0.92 0.68 0.50 0.48 0.50 0.55 0.58 0.54 0.45 0.37 0.31
1.47 1.64 1.58 1.50 1.52 1.52 1.63 1.78 1.83 1.89 1.69 1.60 1.44 1.40 1.28 1.12 0.94 0.93 1.02 1.08 0.97 0.81 0.83 0.94 1.11 1.16 1.12 1.14 1.17 1.10 0.94 0.85 0.80 0.68 0.50 0.44 0.46 0.49 0.51 0.53 0.47 0.37 0.26
1.73 1.99 1.85 1.72 1.95 1.83 1.93 2.14 2.08 2.00 1.81 1.75 1.59 1.39 1.27 1.09 0.83 0.83 0.84 0.95 1.04 0.86 0.82 0.89 0.93 0.92 1.04 1.17 1.22 1.22 1.16 1.00 0.79 0.67 0.57 0.56 0.59 0.59 0.57 0.50 0.46 0.37 0.26
1.80 2.08 1.92 1.92 2.02 2.18 2.18 1.99 2.25 2.20 2.02 1.96 1.66 1.34 1.08 0.89 0.74 0.73 0.71 0.69 0.81 0.75 0.66 0.72 0.78 0.83 1.03 1.30 1.34 1.34 1.35 1.28 1.09 0.98 1.02 1.04 1.05 0.96 0.79 0.60 0.47 0.37 0.27
1.92 2.20 2.01 1.92 2.05 2.22 2.14 2.10 2.25 2.26 2.04 2.00 1.59 1.14 0.92 0.71 0.65 0.68 0.63 0.60 0.62 0.57 0.53 0.61 0.82 0.76 0.80 0.98 1.19 1.29 1.38 1.47 1.41 1.60 1.90 1.84 1.74 1.46 1.08 0.80 0.58 0.46 0.36
1.88 2.16 1.95 2.06 2.06 2.05 2.05 2.09 2.29 2.26 2.02 2.07 1.80 1.28 0.88 0.63 0.54 0.56 0.63 0.63 0.56 0.60 0.70 0.80 0.87 0.84 0.83 0.79 0.86 1.00 1.26 1.50 1.49 1.60 1.96 2.21 2.28 1.87 1.30 0.97 0.72 0.54 0.45
1.80 1.96 1.99 1.89 1.93 1.98 1.99 2.03 2.15 1.97 1.74 1.90 1.88 1.70 1.11 0.78 0.60 0.53 0.70 0.73 0.68 0.75 0.79 0.77 0.88 0.97 0.98 1.10 0.98 0.75 0.90 1.24 1.38 1.42 1.55 1.96 2.17 1.82 1.34 1.16 0.93 0.71 0.59
1.71 1.76 1.79 1.79 1.79 1.79 1.80 1.94 1.93 1.83 1.65 1.67 1.82 1.91 1.50 1.05 0.79 0.52 0.50 0.59 0.71 0.75 0.74 0.79 0.75 0.80 0.87 1.10 1.16 1.00 0.78 0.84 1.12 1.38 1.48 1.66 1.82 1.59 1.34 1.25 1.14 0.90 0.75
1.47 1.47 1.46 1.48 1.53 1.57 1.66 1.60 1.62 1.75 1.76 1.63 1.71 1.74 1.65 1.53 1.33 0.82 0.54 0.56 0.70 0.74 0.72 0.69 0.72 0.78 0.80 0.92 1.04 1.11 0.96 0.87 0.95 1.09 1.32 1.47 1.50 1.34 1.25 1.30 1.45 1.30 0.96
1.38 1.32 1.33 1.31 1.30 1.34 1.41 1.45 1.62 1.66 1.71 1.65 1.61 1.62 1.70 1.67 1.51 1.22 0.80 0.70 0.70 0.66 0.71 0.73 0.77 0.88 0.97 1.00 1.08 1.04 1.06 0.93 0.97 0.87 0.87 1.00 1.10 1.17 1.16 1.29 1.65 1.76 1.48
1.17 1.21 1.20 1.19 1.19 1.23 1.33 1.36 1.40 1.43 1.47 1.49 1.45 1.45 1.55 1.51 1.43 1.42 1.12 0.98 0.92 0.79 0.82 0.85 0.86 0.90 0.90 0.98 0.93 1.01 0.96 0.82 0.79 0.79 0.66 0.64 0.72 0.83 0.94 1.17 1.52 1.75 1.80
0.92 0.93 0.99 1.01 1.05 1.13 1.25 1.28 1.23 1.25 1.30 1.33 1.32 1.39 1.48 1.45 1.44 1.54 1.55 1.38 1.24 1.02 1.02 0.99 0.91 0.93 0.86 0.97 0.91 0.79 0.64 0.55 0.48 0.46 0.45 0.48 0.54 0.59 0.67 0.82 1.10 1.38 1.56
0.74 0.74 0.81 0.88 0.96 1.01 1.06 1.20 1.24 1.25 1.28 1.30 1.30 1.47 1.48 1.39 1.41 1.51 1.64 1.74 1.62 1.35 1.30 1.17 0.98 0.87 0.89 0.87 0.74 0.54 0.41 0.34 0.30 0.26 0.27 0.31 0.35 0.39 0.48 0.58 0.72 0.87 1.01
0.88 0.84 0.87 0.92 0.99 1.06 1.12 1.20 1.28 1.29 1.35 1.40 1.48 1.57 1.49 1.39 1.37 1.45 1.69 1.84 1.88 1.66 1.46 1.28 1.13 0.87 0.83 0.73 0.62 0.54 0.47 0.32 0.22 0.19 0.18 0.19 0.22 0.25 0.29 0.36 0.45 0.53 0.61
0.94 0.93 0.94 0.94 0.95 1.00 1.10 1.19 1.30 1.35 1.40 1.48 1.52 1.60 1.63 1.58 1.58 1.61 1.73 1.87 1.94 1.92 1.61 1.36 1.31 1.05 0.91 0.71 0.62 0.53 0.41 0.30 0.21 0.17 0.16 0.15 0.15 0.18 0.22 0.25 0.29 0.34 0.40
0.85 0.82 0.80 0.77 0.79 0.82 0.85 0.92 1.00 1.07 1.15 1.22 1.25 1.36 1.50 1.64 1.65 1.68 1.74 1.78 1.88 1.97 1.69 1.63 1.72 1.53 1.31 1.02 0.79 0.63 0.45 0.38 0.28 0.20 0.17 0.17 0.16 0.17 0.20 0.24 0.26 0.28 0.33
0.62 0.59 0.57 0.57 0.58 0.58 0.60 0.63 0.70 0.84 0.95 1.04 1.11 1.15 1.14 1.21 1.30 1.40 1.50 1.65 1.77 1.93 1.81 1.82 2.01 1.95 1.66 1.29 1.05 0.85 0.59 0.44 0.36 0.28 0.20 0.16 0.18 0.19 0.20 0.23 0.27 0.31 0.32
0.38 0.39 0.45 0.48 0.46 0.48 0.53 0.57 0.64 0.73 0.81 0.86 0.91 0.91 0.84 0.87 0.94 1.05 1.13 1.31 1.51 1.79 1.85 1.93 2.13 2.07 1.79 1.51 1.30 0.99 0.77 0.66 0.47 0.39 0.28 0.19 0.16 0.18 0.22 0.22 0.26 0.34 0.37
0.29 0.30 0.37 0.41 0.42 0.46 0.56 0.68 0.78 0.78 0.77 0.74 0.68 0.64 0.64 0.72 0.78 0.87 0.99 1.04 1.17 1.40 1.57 1.74 1.99 2.03 1.86 1.70 1.53 1.20 0.98 0.85 0.67 0.50 0.46 0.31 0.25 0.21 0.22 0.24 0.27 0.34 0.45
0.24 0.28 0.36 0.42 0.47 0.50 0.50 0.57 0.66 0.67 0.69 0.66 0.58 0.49 0.47 0.54 0.60 0.66 0.74 0.87 0.96 1.14 1.28 1.48 1.74 1.94 1.79 1.63 1.47 1.32 1.16 1.06 0.91 0.72 0.69 0.54 0.43 0.35 0.28 0.26 0.29 0.37 0.53
0.24 0.28 0.34 0.38 0.38 0.34 0.36 0.40 0.47 0.51 0.50 0.52 0.50 0.41 0.35 0.39 0.45 0.52 0.62 0.69 0.78 0.89 1.04 1.29 1.52 1.66 1.55 1.46 1.46 1.43 1.34 1.18 1.11 0.97 0.98 0.95 0.84 0.75 0.57 0.39 0.32 0.33 0.44
0.30 0.35 0.35 0.33 0.32 0.33 0.31 0.29 0.29 0.36 0.39 0.37 0.37 0.39 0.33 0.31 0.36 0.39 0.45 0.48 0.58 0.69 0.80 1.01 1.21 1.36 1.44 1.37 1.46 1.52 1.51 1.46 1.42 1.32 1.34 1.39 1.31 1.25 0.83 0.66 0.58 0.45 0.41
0.42 0.45 0.42 0.37 0.38 0.36 0.29 0.26 0.26 0.27 0.31 0.32 0.30 0.31 0.32 0.33 0.32 0.29 0.34 0.38 0.38 0.43 0.52 0.60 0.77 1.04 1.45 1.59 1.48 1.50 1.57 1.57 1.55 1.52 1.53 1.69 1.55 1.52 1.21 0.84 0.63 0.45 0.39
0.48 0.48 0.47 0.43 0.43 0.40 0.31 0.25 0.24 0.28 0.30 0.30 0.29 0.25 0.24 0.26 0.31 0.29 0.29 0.29 0.31 0.33 0.41 0.51 0.65 0.85 1.07 1.33 1.42 1.40 1.41 1.42 1.58 1.64 1.56 1.67 1.69 1.59 1.62 1.39 0.90 0.56 0.38
0.53 0.49 0.46 0.47 0.47 0.46 0.35 0.23 0.22 0.28 0.31 0.31 0.33 0.28 0.23 0.22 0.24 0.25 0.26 0.24 0.24 0.25 0.29 0.37 0.46 0.61 0.76 0.89 0.92 0.85 0.85 0.90 1.00 1.16 1.17 1.34 1.60 1.64 1.82 1.90 1.52 1.02 0.69

GEFSMA_prec_meanprecacc_102.txt.gz
Total_Precipitation_Accumulation
0.84 0.93 0.84 0.90 0.91 0.99 1.18 1.43 1.49 1.68 1.79 1.80 1.54 1.31 1.20 1.09 0.96 1.15 1.24 1.03 0.87 0.94 1.19 1.39 1.35 1.24 1.13 1.11 1.08 1.01 0.96 0.96 0.89 0.66 0.54 0.51 0.52 0.59 0.57 0.50 0.44 0.39 0.36
1.37 1.49 1.45 1.43 1.27 1.28 1.44 1.69 1.79 2.13 2.06 1.96 1.58 1.46 1.32 1.26 1.08 1.12 1.29 1.30 0.99 0.86 0.96 1.20 1.38 1.35 1.24 1.20 1.17 1.08 0.98 0.96 0.95 0.69 0.52 0.50 0.53 0.57 0.60 0.54 0.46 0.38 0.31
1.73 1.86 1.77 1.66 1.66 1.67 1.78 1.93 2.00 2.08 1.86 1.77 1.60 1.56 1.43 1.26 1.07 1.05 1.12 1.18 1.06 0.88 0.88 0.99 1.20 1.28 1.26 1.27 1.29 1.21 1.03 0.91 0.83 0.70 0.51 0.45 0.48 0.51 0.53 0.54 0.48 0.37 0.26
1.98 2.21 2.03 1.88 2.13 2.02 2.12 2.34 2.29 2.19 1.97 1.91 1.77 1.60 1.46 1.25 0.96 0.95 0.96 1.05 1.15 0.94 0.89 0.96 0.99 1.01 1.17 1.32 1.35 1.34 1.26 1.08 0.84 0.71 0.59 0.57 0.60 0.61 0.58 0.52 0.48 0.38 0.26
2.02 2.26 2.08 2.08 2.22 2.40 2.40 2.24 2.51 2.40 2.18 2.09 1.80 1.51 1.25 1.04 0.85 0.82 0.79 0.77 0.91 0.83 0.74 0.79 0.85 0.91 1.14 1.47 1.51 1.51 1.50 1.41 1.17 1.04 1.07 1.06 1.07 0.97 0.80 0.62 0.48 0.38 0.28
2.04 2.32 2.12 2.04 2.19 2.38 2.30 2.27 2.43 2.44 2.20 2.16 1.74 1.29 1.07 0.83 0.76 0.77 0.71 0.68 0.68 0.62 0.58 0.68 0.92 0.83 0.88 1.10 1.34 1.47 1.57 1.65 1.55 1.71 1.98 1.90 1.77 1.47 1.09 0.81 0.59 0.47 0.37
1.95 2.25 2.04 2.15 2.15 2.15 2.16 2.21 2.42 2.42 2.19 2.25 1.97 1.42 1.00 0.73 0.62 0.63 0.70 0.70 0.62 0.65 0.76 0.88 0.96 0.92 0.89 0.84 0.94 1.12 1.43 1.67 1.64 1.72 2.07 2.29 2.34 1.90 1.31 0.99 0.74 0.55 0.46
1.86 2.02 2.05 1.96 2.01 2.06 2.08 2.13 2.30 2.13 1.91 2.08 2.06 1.88 1.26 0.88 0.66 0.57 0.75 0.78 0.73 0.81 0.84 0.84 0.97 1.06 1.05 1.16 1.02 0.79 0.99 1.38 1.53 1.53 1.65 2.05 2.24 1.87 1.37 1.18 0.94 0.72 0.60
1.74 1.79 1.83 1.85 1.87 1.86 1.87 2.01 2.01 1.94 1.78 1.80 1.96 2.06 1.63 1.16 0.87 0.58 0.55 0.64 0.76 0.81 0.80 0.85 0.81 0.88 0.94 1.18 1.23 1.04 0.83 0.92 1.23 1.51 1.59 1.76 1.90 1.64 1.38 1.28 1.16 0.92 0.76
1.49 1.50 1.50 1.53 1.60 1.65 1.73 1.65 1.67 1.82 1.83 1.70 1.79 1.82 1.73 1.61 1.42 0.89 0.60 0.61 0.77 0.81 0.79 0.76 0.79 0.86 0.89 1.00 1.13 1.15 1.00 0.91 1.01 1.20 1.45 1.60 1.60 1.39 1.30 1.35 1.49 1.33 0.97
1.39 1.34 1.36 1.34 1.34 1.38 1.47 1.50 1.66 1.70 1.75 1.71 1.67 1.67 1.75 1.72 1.56 1.28 0.87 0.76 0.77 0.72 0.78 0.80 0.85 0.96 1.07 1.10 1.18 1.10 1.10 0.96 0.99 0.93 0.96 1.12 1.21 1.26 1.21 1.34 1.71 1.81 1.51
1.18 1.22 1.21 1.20 1.22 1.26 1.37 1.41 1.45 1.46 1.51 1.53 1.49 1.49 1.58 1.54 1.47 1.48 1.19 1.05 0.99 0.86 0.91 0.94 0.94 0.99 1.00 1.07 1.00 1.07 1.00 0.86 0.81 0.80 0.70 0.72 0.81 0.91 1.01 1.23 1.59 1.83 1.87
0.92 0.93 1.00 1.02 1.06 1.14 1.27 1.31 1.26 1.27 1.34 1.38 1.36 1.42 1.50 1.47 1.46 1.57 1.59 1.43 1.30 1.08 1.08 1.07 0.98 1.03 0.95 1.07 1.01 0.87 0.70 0.60 0.52 0.48 0.47 0.51 0.58 0.64 0.73 0.87 1.16 1.46 1.64
0.74 0.75 0.82 0.89 0.96 1.02 1.07 1.22 1.27 1.28 1.31 1.34 1.33 1.50 1.50 1.41 1.43 1.54 1.68 1.80 1.68 1.40 1.35 1.23 1.04 0.94 0.97 0.98 0.86 0.65 0.49 0.41 0.35 0.30 0.30 0.33 0.38 0.43 0.50 0.61 0.76 0.91 1.06
0.88 0.84 0.87 0.92 1.00 1.07 1.14 1.22 1.30 1.33 1.39 1.43 1.51 1.60 1.52 1.41 1.39 1.47 1.72 1.88 1.95 1.73 1.52 1.33 1.19 0.95 0.93 0.83 0.76 0.66 0.58 0.41 0.29 0.25 0.22 0.22 0.24 0.28 0.31 0.38 0.46 0.55 0.64
0.94 0.93 0.95 0.94 0.96 1.01 1.12 1.21 1.32 1.37 1.43 1.52 1.55 1.63 1.66 1.60 1.60 1.63 1.75 1.91 2.00 2.00 1.69 1.43 1.39 1.14 1.00 0.81 0.73 0.66 0.53 0.41 0.30 0.25 0.22 0.19 0.18 0.21 0.24 0.27 0.31 0.36 0.42
0.85 0.82 0.80 0.78 0.80 0.83 0.86 0.94 1.02 1.09 1.17 1.25 1.28 1.39 1.52 1.67 1.68 1.70 1.75 1.80 1.91 2.03 1.75 1.70 1.81 1.64 1.41 1.15 0.92 0.76 0.58 0.51 0.39 0.29 0.24 0.22 0.21 0.21 0.24 0.28 0.28 0.30 0.34
0.62 0.60 0.58 0.57 0.58 0.59 0.61 0.65 0.72 0.85 0.97 1.06 1.13 1.18 1.17 1.24 1.34 1.43 1.53 1.67 1.80 1.97 1.87 1.90 2.10 2.08 1.80 1.44 1.23 1.02 0.75 0.60 0.49 0.40 0.29 0.23 0.23 0.23 0.24 0.28 0.31 0.34 0.34
0.38 0.40 0.46 0.48 0.47 0.49 0.54 0.58 0.65 0.75 0.83 0.88 0.93 0.93 0.87 0.90 0.97 1.10 1.17 1.34 1.54 1.82 1.91 2.00 2.22 2.19 1.96 1.69 1.50 1.19 0.97 0.85 0.62 0.52 0.40 0.28 0.22 0.23 0.26 0.27 0.31 0.38 0.39
0.30 0.31 0.37 0.42 0.43 0.47 0.56 0.68 0.78 0.79 0.79 0.75 0.70 0.66 0.66 0.75 0.81 0.91 1.03 1.09 1.23 1.45 1.62 1.82 2.08 2.14 2.01 1.90 1.75 1.41 1.18 1.06 0.83 0.62 0.56 0.40 0.32 0.27 0.26 0.28 0.32 0.38 0.48
0.25 0.28 0.36 0.43 0.48 0.51 0.51 0.57 0.67 0.69 0.71 0.68 0.61 0.51 0.49 0.56 0.62 0.69 0.77 0.92 1.03 1.21 1.34 1.55 1.83 2.07 1.94 1.82 1.70 1.58 1.39 1.27 1.11 0.86 0.79 0.62 0.48 0.38 0.31 0.29 0.32 0.41 0.57
0.24 0.29 0.35 0.38 0.39 0.34 0.37 0.40 0.48 0.52 0.53 0.55 0.53 0.44 0.38 0.40 0.47 0.53 0.63 0.71 0.82 0.95 1.11 1.36 1.60 1.78 1.71 1.65 1.69 1.71 1.63 1.42 1.33 1.14 1.10 1.05 0.90 0.79 0.59 0.40 0.34 0.36 0.49
0.31 0.36 0.35 0.34 0.33 0.34 0.31 0.29 0.29 0.37 0.40 0.40 0.41 0.44 0.37 0.34 0.39 0.43 0.49 0.50 0.60 0.72 0.85 1.08 1.29 1.46 1.59 1.57 1.70 1.81 1.82 1.74 1.64 1.49 1.47 1.51 1.42 1.33 0.87 0.69 0.60 0.48 0.44
0.43 0.45 0.43 0.38 0.39 0.38 0.29 0.26 0.26 0.28 0.33 0.35 0.34 0.35 0.38 0.40 0.38 0.36 0.42 0.45 0.43 0.48 0.56 0.64 0.84 1.14 1.60 1.78 1.71 1.79 1.92 1.92 1.84 1.77 1.72 1.83 1.68 1.63 1.28 0.89 0.67 0.48 0.42
0.48 0.49 0.48 0.44 0.44 0.41 0.31 0.25 0.25 0.29 0.33 0.34 0.33 0.30 0.30 0.34 0.37 0.32 0.36 0.39 0.39 0.40 0.46 0.55 0.69 0.94 1.22 1.52 1.65 1.67 1.74 1.82 1.96 1.93 1.81 1.87 1.82 1.70 1.71 1.47 0.97 0.61 0.40
0.53 0.49 0.47 0.48 0.48 0.47 0.36 0.23 0.23 0.30 0.35 0.36 0.38 0.33 0.27 0.26 0.28 0.27 0.33 0.35 0.34 0.34 0.36 0.44 0.52 0.67 0.88 1.06 1.10 1.06 1.12 1.20 1.36 1.51 1.42 1.55 1.77 1.76 1.93 2.00 1.61 1.09 0.74

GEFSMA_prec_meanprecacc_108.txt.gz
Total_Precipitation_Accumulation
0.99 1.07 1.00 1.09 1.10 1.21 1.42 1.70 1.74 1.91 1.97 1.94 1.65 1.40 1.26 1.15 1.01 1.20 1.36 1.19 0.94 0.98 1.23 1.43 1.41 1.30 1.19 1.18 1.12 1.04 0.97 0.98 0.90 0.68 0.56 0.55 0.57 0.61 0.57 0.51 0.44 0.39 0.36
1.55 1.67 1.63 1.62 1.46 1.48 1.65 1.91 2.06 2.42 2.31 2.17 1.73 1.59 1.44 1.36 1.14 1.18 1.37 1.44 1.07 0.90 0.99 1.23 1.42 1.39 1.30 1.27 1.23 1.12 1.00 0.97 0.96 0.71 0.53 0.51 0.57 0.61 0.61 0.55 0.46 0.38 0.32
1.91 2.05 1.95 1.86 1.87 1.91 2.02 2.15 2.24 2.32 2.09 1.98 1.78 1.72 1.57 1.38 1.16 1.16 1.24 1.32 1.20 0.97 0.92 1.02 1.23 1.31 1.31 1.33 1.35 1.26 1.07 0.94 0.86 0.72 0.52 0.46 0.50 0.54 0.56 0.56 0.49 0.38 0.27
2.16 2.39 2.19 2.05 2.36 2.27 2.36 2.58 2.54 2.43 2.20 2.10 1.94 1.77 1.65 1.41 1.09 1.07 1.09 1.19 1.29 1.06 1.00 1.01 1.03 1.04 1.20 1.37 1.43 1.41 1.34 1.14 0.88 0.74 0.60 0.58 0.61 0.62 0.60 0.53 0.49 0.38 0.26
2.14 2.38 2.20 2.23 2.39 2.59 2.60 2.42 2.76 2.64 2.42 2.31 1.97 1.68 1.43 1.20 1.00 0.94 0.92 0.90 1.04 0.94 0.85 0.91 0.93 0.96 1.20 1.52 1.58 1.59 1.59 1.48 1.22 1.08 1.10 1.09 1.08 0.98 0.81 0.63 0.49 0.38 0.28
2.12 2.41 2.23 2.18 2.34 2.53 2.46 2.44 2.62 2.63 2.38 2.35 1.93 1.48 1.25 0.98 0.90 0.90 0.82 0.81 0.81 0.72 0.67 0.80 1.08 0.90 0.93 1.15 1.39 1.53 1.65 1.73 1.63 1.77 2.03 1.93 1.80 1.49 1.09 0.81 0.59 0.47 0.37
2.01 2.33 2.12 2.27 2.28 2.28 2.29 2.35 2.57 2.55 2.31 2.41 2.15 1.62 1.18 0.88 0.76 0.76 0.82 0.80 0.70 0.74 0.89 1.03 1.12 1.07 0.98 0.89 0.97 1.15 1.49 1.76 1.72 1.79 2.13 2.33 2.37 1.93 1.33 0.99 0.74 0.56 0.46
1.90 2.07 2.11 2.03 2.09 2.14 2.17 2.23 2.41 2.24 2.01 2.24 2.24 2.05 1.41 1.01 0.75 0.64 0.85 0.87 0.81 0.90 0.95 0.98 1.11 1.23 1.20 1.30 1.07 0.81 1.02 1.43 1.59 1.60 1.70 2.09 2.28 1.90 1.39 1.20 0.95 0.73 0.61
1.76 1.82 1.87 1.88 1.91 1.90 1.92 2.08 2.09 2.02 1.87 1.91 2.11 2.23 1.78 1.29 0.99 0.69 0.65 0.72 0.86 0.92 0.91 0.98 0.96 1.04 1.09 1.33 1.38 1.12 0.86 0.96 1.28 1.57 1.65 1.79 1.93 1.67 1.40 1.30 1.18 0.92 0.77
1.50 1.51 1.52 1.56 1.63 1.68 1.78 1.70 1.74 1.90 1.91 1.78 1.89 1.94 1.84 1.74 1.54 1.01 0.73 0.72 0.90 0.93 0.91 0.87 0.92 1.04 1.04 1.14 1.29 1.28 1.08 0.95 1.06 1.27 1.52 1.65 1.64 1.43 1.32 1.37 1.51 1.34 0.98
1.40 1.34 1.37 1.38 1.37 1.41 1.50 1.55 1.73 1.77 1.83 1.78 1.75 1.76 1.84 1.81 1.65 1.38 0.97 0.88 0.90 0.83 0.87 0.89 0.95 1.09 1.23 1.26 1.34 1.24 1.23 1.02 1.03 0.98 1.05 1.21 1.29 1.31 1.25 1.37 1.74 1.84 1.53
1.19 1.22 1.22 1.23 1.24 1.29 1.40 1.44 1.49 1.51 1.56 1.60 1.58 1.59 1.67 1.61 1.53 1.56 1.26 1.13 1.08 0.94 0.97 1.01 1.01 1.09 1.12 1.19 1.10 1.20 1.16 0.96 0.88 0.85 0.75 0.79 0.89 1.00 1.07 1.27 1.64 1.90 1.92
0.92 0.94 1.00 1.03 1.07 1.16 1.29 1.34 1.30 1.32 1.39 1.44 1.42 1.48 1.56 1.52 1.50 1.62 1.65 1.48 1.35 1.13 1.15 1.14 1.06 1.11 1.05 1.18 1.12 1.01 0.85 0.73 0.63 0.55 0.52 0.56 0.64 0.71 0.79 0.93 1.22 1.52 1.71
0.74 0.75 0.82 0.90 0.97 1.03 1.09 1.25 1.30 1.31 1.35 1.39 1.38 1.56 1.55 1.44 1.46 1.57 1.72 1.84 1.72 1.44 1.41 1.30 1.11 1.03 1.07 1.10 0.99 0.79 0.62 0.53 0.47 0.41 0.36 0.38 0.44 0.48 0.54 0.65 0.81 0.96 1.11
0.89 0.85 0.88 0.93 1.01 1.09 1.16 1.25 1.33 1.36 1.43 1.47 1.55 1.65 1.58 1.45 1.42 1.49 1.74 1.92 2.00 1.78 1.56 1.39 1.26 1.01 1.01 0.94 0.89 0.79 0.75 0.56 0.40 0.34 0.32 0.29 0.30 0.33 0.36 0.41 0.50 0.59 0.67
0.95 0.94 0.96 0.96 0.98 1.03 1.14 1.23 1.35 1.40 1.47 1.56 1.60 1.68 1.72 1.64 1.63 1.66 1.78 1.93 2.05 2.04 1.73 1.48 1.45 1.19 1.05 0.87 0.81 0.77 0.68 0.59 0.43 0.33 0.31 0.27 0.25 0.26 0.29 0.31 0.34 0.38 0.44
0.86 0.83 0.81 0.79 0.81 0.84 0.88 0.96 1.04 1.11 1.20 1.29 1.33 1.44 1.59 1.73 1.74 1.74 1.79 1.84 1.95 2.08 1.80 1.75 1.86 1.70 1.46 1.19 0.98 0.84 0.69 0.64 0.52 0.40 0.32 0.30 0.28 0.28 0.30 0.34 0.33 0.33 0.36
0.63 0.60 0.58 0.58 0.59 0.59 0.62 0.67 0.73 0.87 0.99 1.09 1.18 1.23 1.22 1.31 1.41 1.49 1.59 1.72 1.84 2.02 1.92 1.94 2.14 2.12 1.85 1.49 1.30 1.11 0.83 0.71 0.62 0.51 0.39 0.31 0.31 0.31 0.31 0.34 0.37 0.38 0.38
0.39 0.40 0.47 0.49 0.48 0.50 0.55 0.60 0.67 0.77 0.85 0.92 0.97 0.98 0.92 0.96 1.04 1.16 1.24 1.40 1.60 1.86 1.96 2.05 2.26 2.23 2.00 1.74 1.57 1.28 1.08 0.98 0.77 0.65 0.52 0.38 0.31 0.31 0.34 0.34 0.38 0.44 0.44
0.30 0.32 0.38 0.43 0.44 0.48 0.58 0.70 0.81 0.81 0.81 0.78 0.73 0.70 0.70 0.80 0.88 0.98 1.10 1.17 1.30 1.52 1.69 1.88 2.14 2.18 2.05 1.94 1.83 1.52 1.32 1.22 1.02 0.79 0.71 0.52 0.41 0.36 0.35 0.37 0.39 0.45 0.53
0.25 0.29 0.37 0.44 0.49 0.52 0.52 0.59 0.68 0.70 0.73 0.71 0.64 0.55 0.53 0.59 0.66 0.75 0.81 0.98 1.12 1.30 1.43 1.63 1.90 2.13 1.99 1.87 1.78 1.68 1.52 1.46 1.34 1.12 1.04 0.78 0.60 0.48 0.38 0.37 0.40 0.49 0.64
0.25 0.30 0.36 0.40 0.41 0.36 0.37 0.40 0.48 0.52 0.53 0.57 0.56 0.48 0.42 0.43 0.48 0.55 0.65 0.74 0.86 1.01 1.19 1.45 1.68 1.85 1.76 1.70 1.77 1.83 1.79 1.60 1.53 1.40 1.43 1.32 1.09 0.92 0.68 0.46 0.38 0.42 0.56
0.32 0.38 0.38 0.37 0.37 0.38 0.32 0.29 0.29 0.37 0.41 0.41 0.44 0.48 0.40 0.36 0.42 0.48 0.53 0.52 0.62 0.74 0.87 1.13 1.35 1.53 1.66 1.64 1.78 1.93 2.00 1.91 1.81 1.69 1.75 1.84 1.70 1.55 1.00 0.77 0.67 0.53 0.50
0.45 0.48 0.45 0.41 0.44 0.42 0.30 0.26 0.26 0.28 0.34 0.37 0.39 0.41 0.44 0.47 0.45 0.43 0.51 0.53 0.50 0.52 0.59 0.66 0.87 1.19 1.67 1.87 1.81 1.90 2.09 2.13 2.04 1.99 1.98 2.15 2.00 1.90 1.48 1.03 0.77 0.56 0.49
0.50 0.51 0.51 0.47 0.48 0.46 0.33 0.25 0.25 0.30 0.35 0.37 0.38 0.36 0.37 0.43 0.44 0.35 0.42 0.48 0.49 0.49 0.50 0.57 0.72 0.98 1.25 1.56 1.72 1.78 1.88 2.02 2.18 2.17 2.07 2.16 2.15 2.02 2.00 1.69 1.11 0.72 0.49
0.55 0.51 0.49 0.51 0.51 0.52 0.38 0.24 0.23 0.31 0.37 0.40 0.45 0.42 0.33 0.30 0.30 0.28 0.39 0.45 0.45 0.45 0.46 0.51 0.57 0.71 0.92 1.10 1.14 1.14 1.25 1.35 1.56 1.75 1.67 1.79 2.06 2.07 2.26 2.28 1.78 1.20 0.82

GEFSMA_prec_meanprecacc_114.txt.gz
Total_Precipitation_Accumulation
1.13 1.19 1.11 1.20 1.23 1.35 1.56 1.85 1.94 2.09 2.11 2.06 1.76 1.54 1.45 1.31 1.12 1.31 1.54 1.41 1.17 1.19 1.38 1.55 1.49 1.37 1.25 1.21 1.13 1.05 0.98 0.98 0.91 0.68 0.56 0.55 0.57 0.61 0.58 0.51 0.44 0.39 0.36
1.68 1.78 1.73 1.73 1.58 1.60 1.77 2.04 2.19 2.59 2.49 2.35 1.89 1.72 1.58 1.52 1.27 1.30 1.53 1.64 1.29 1.13 1.18 1.39 1.53 1.47 1.37 1.32 1.25 1.14 1.02 0.98 0.97 0.71 0.53 0.52 0.58 0.61 0.62 0.55 0.47 0.38 0.32
2.01 2.13 2.03 1.94 1.97 2.01 2.10 2.24 2.35 2.46 2.24 2.15 1.96 1.84 1.66 1.47 1.25 1.24 1.37 1.49 1.40 1.18 1.11 1.19 1.37 1.41 1.39 1.40 1.39 1.28 1.09 0.95 0.87 0.72 0.52 0.46 0.50 0.54 0.56 0.56 0.49 0.38 0.27
2.26 2.46 2.24 2.12 2.42 2.33 2.43 2.65 2.62 2.55 2.33 2.24 2.08 1.87 1.72 1.47 1.14 1.13 1.17 1.30 1.45 1.23 1.13 1.14 1.16 1.15 1.30 1.46 1.49 1.45 1.37 1.17 0.89 0.75 0.61 0.58 0.61 0.62 0.60 0.53 0.49 0.38 0.26
2.22 2.44 2.24 2.25 2.42 2.62 2.64 2.47 2.83 2.75 2.55 2.42 2.06 1.75 1.50 1.27 1.06 0.99 0.99 1.01 1.16 1.04 0.94 1.01 1.04 1.06 1.30 1.61 1.68 1.68 1.65 1.52 1.25 1.10 1.12 1.10 1.09 0.98 0.81 0.63 0.49 0.38 0.28
2.16 2.45 2.26 2.20 2.36 2.55 2.48 2.47 2.68 2.70 2.47 2.45 2.02 1.54 1.32 1.05 0.96 0.94 0.87 0.87 0.87 0.78 0.74 0.87 1.15 0.97 1.01 1.24 1.50 1.65 1.75 1.80 1.68 1.81 2.06 1.96 1.82 1.50 1.10 0.82 0.59 0.47 0.37
2.04 2.36 2.15 2.29 2.30 2.30 2.30 2.37 2.60 2.61 2.37 2.49 2.22 1.67 1.23 0.92 0.80 0.79 0.85 0.85 0.76 0.81 0.96 1.11 1.21 1.16 1.05 0.96 1.04 1.25 1.60 1.85 1.78 1.83 2.16 2.37 2.40 1.94 1.34 1.00 0.74 0.56 0.46
1.91 2.08 2.12 2.04 2.10 2.16 2.19 2.25 2.44 2.28 2.05 2.30 2.30 2.11 1.45 1.04 0.78 0.66 0.88 0.92 0.86 0.98 1.04 1.08 1.23 1.35 1.32 1.38 1.11 0.88 1.12 1.54 1.69 1.67 1.75 2.13 2.31 1.92 1.40 1.20 0.95 0.73 0.61
1.77 1.82 1.88 1.90 1.93 1.91 1.94 2.09 2.10 2.04 1.88 1.94 2.15 2.28 1.82 1.32 1.02 0.71 0.67 0.76 0.92 0.99 1.00 1.12 1.11 1.18 1.21 1.43 1.44 1.19 0.96 1.08 1.42 1.70 1.73 1.85 1.97 1.70 1.42 1.31 1.18 0.93 0.77
1.51 1.52 1.53 1.57 1.64 1.69 1.79 1.71 1.75 1.92 1.93 1.79 1.91 1.96 1.87 1.77 1.56 1.02 0.74 0.75 0.96 1.00 1.01 1.01 1.09 1.22 1.22 1.26 1.37 1.35 1.16 1.06 1.18 1.43 1.67 1.76 1.71 1.47 1.35 1.39 1.52 1.35 0.99
1.41 1.35 1.38 1.39 1.38 1.42 1.52 1.56 1.74 1.79 1.85 1.80 1.77 1.77 1.86 1.84 1.68 1.39 0.98 0.91 0.93 0.87 0.93 0.99 1.10 1.28 1.40 1.40 1.46 1.34 1.33 1.14 1.15 1.12 1.21 1.38 1.43 1.41 1.30 1.41 1.79 1.87 1.56
1.19 1.22 1.23 1.23 1.25 1.29 1.41 1.45 1.50 1.52 1.57 1.61 1.59 1.60 1.70 1.63 1.55 1.58 1.28 1.15 1.11 0.97 1.01 1.06 1.09 1.20 1.27 1.32 1.21 1.30 1.25 1.05 0.98 0.95 0.86 0.93 1.06 1.15 1.19 1.35 1.72 1.96 1.97
0.92 0.94 1.00 1.04 1.08 1.17 1.30 1.34 1.30 1.32 1.39 1.44 1.42 1.49 1.58 1.54 1.53 1.65 1.68 1.51 1.38 1.15 1.17 1.18 1.10 1.17 1.13 1.30 1.22 1.11 0.93 0.82 0.72 0.65 0.62 0.67 0.76 0.84 0.93 1.05 1.32 1.61 1.79
0.74 0.75 0.82 0.90 0.98 1.03 1.09 1.25 1.30 1.31 1.35 1.39 1.39 1.57 1.56 1.45 1.48 1.59 1.75 1.87 1.76 1.46 1.42 1.32 1.14 1.06 1.12 1.18 1.07 0.88 0.70 0.61 0.56 0.51 0.47 0.48 0.53 0.57 0.65 0.75 0.90 1.04 1.19
0.89 0.85 0.88 0.93 1.01 1.09 1.16 1.25 1.33 1.36 1.43 1.47 1.55 1.66 1.58 1.45 1.43 1.51 1.76 1.95 2.04 1.81 1.58 1.41 1.29 1.04 1.05 0.99 0.94 0.85 0.81 0.63 0.46 0.41 0.38 0.35 0.37 0.41 0.44 0.49 0.56 0.64 0.72
0.95 0.94 0.96 0.96 0.98 1.03 1.14 1.23 1.35 1.40 1.47 1.57 1.60 1.69 1.73 1.64 1.64 1.67 1.79 1.95 2.08 2.10 1.77 1.49 1.47 1.22 1.09 0.91 0.87 0.81 0.73 0.66 0.50 0.39 0.36 0.32 0.30 0.32 0.35 0.37 0.40 0.43 0.49
0.86 0.83 0.81 0.79 0.81 0.84 0.88 0.97 1.04 1.11 1.20 1.29 1.33 1.44 1.59 1.73 1.74 1.75 1.80 1.85 1.97 2.12 1.87 1.79 1.88 1.72 1.49 1.23 1.03 0.89 0.73 0.69 0.59 0.46 0.37 0.36 0.33 0.33 0.35 0.39 0.39 0.39 0.42
0.63 0.60 0.58 0.58 0.59 0.59 0.62 0.67 0.74 0.87 0.99 1.10 1.18 1.23 1.22 1.31 1.41 1.49 1.59 1.73 1.85 2.05 1.98 2.01 2.17 2.14 1.87 1.52 1.33 1.16 0.89 0.76 0.67 0.58 0.44 0.35 0.36 0.37 0.36 0.39 0.42 0.43 0.43
0.39 0.40 0.47 0.49 0.48 0.50 0.55 0.60 0.68 0.78 0.86 0.92 0.97 0.98 0.92 0.97 1.04 1.17 1.25 1.41 1.60 1.87 1.99 2.11 2.31 2.26 2.02 1.76 1.60 1.33 1.12 1.03 0.82 0.72 0.58 0.43 0.35 0.36 0.40 0.40 0.44 0.49 0.49
0.30 0.32 0.38 0.43 0.44 0.48 0.58 0.70 0.81 0.81 0.82 0.79 0.73 0.70 0.70 0.81 0.88 0.98 1.11 1.18 1.31 1.53 1.70 1.91 2.18 2.23 2.08 1.97 1.86 1.54 1.35 1.26 1.07 0.86 0.78 0.57 0.46 0.40 0.40 0.42 0.45 0.50 0.58
0.25 0.29 0.37 0.44 0.49 0.53 0.52 0.59 0.68 0.70 0.73 0.71 0.64 0.55 0.53 0.59 0.67 0.75 0.82 0.99 1.13 1.31 1.44 1.64 1.93 2.18 2.03 1.91 1.81 1.70 1.54 1.48 1.38 1.18 1.12 0.86 0.67 0.53 0.42 0.41 0.45 0.54 0.68
0.25 0.30 0.36 0.40 0.41 0.36 0.37 0.40 0.48 0.52 0.53 0.57 0.56 0.48 0.42 0.43 0.48 0.55 0.66 0.75 0.86 1.02 1.20 1.46 1.70 1.90 1.81 1.74 1.81 1.85 1.81 1.62 1.56 1.45 1.50 1.41 1.16 0.99 0.73 0.49 0.42 0.46 0.61
0.32 0.38 0.38 0.37 0.37 0.39 0.32 0.29 0.29 0.37 0.41 0.41 0.44 0.48 0.40 0.36 0.43 0.48 0.54 0.53 0.63 0.75 0.88 1.14 1.37 1.55 1.70 1.68 1.83 1.97 2.03 1.93 1.84 1.74 1.82 1.93 1.80 1.63 1.07 0.83 0.73 0.58 0.55
0.45 0.48 0.45 0.41 0.44 0.42 0.30 0.26 0.26 0.28 0.34 0.37 0.39 0.41 0.45 0.48 0.45 0.44 0.52 0.55 0.51 0.53 0.61 0.68 0.88 1.20 1.69 1.91 1.85 1.94 2.14 2.16 2.07 2.03 2.05 2.23 2.09 1.99 1.57 1.11 0.85 0.62 0.54
0.50 0.51 0.51 0.48 0.48 0.46 0.33 0.25 0.25 0.30 0.35 0.37 0.38 0.36 0.37 0.44 0.44 0.35 0.43 0.49 0.50 0.50 0.52 0.60 0.74 0.99 1.27 1.59 1.77 1.83 1.93 2.05 2.21 2.21 2.13 2.23 2.23 2.10 2.10 1.78 1.22 0.82 0.56
0.56 0.52 0.49 0.51 0.51 0.52 0.39 0.24 0.23 0.31 0.37 0.40 0.45 0.42 0.33 0.30 0.30 0.28 0.39 0.46 0.46 0.46 0.48 0.54 0.60 0.74 0.94 1.12 1.18 1.20 1.30 1.38 1.59 1.79 1.73 1.86 2.15 2.16 2.37 2.40 1.90 1.30 0.91